Location: Newark
(13.8117°N, 3.6025°W)
Time: 11:12:50
(UTC+00:00)

Vanguard 2 - Pass Details

Date: 25 August 2019
Orbit: 554 x 2937 km, 32.9° (Epoch: 22 September)

Event Time Altitude Azimuth Distance (km) Brightness Sun altitude
Rises 18:45:33 0° 298° (WNW) 5,157 13.6 -4.4°
Reaches altitude 10° 18:48:28 10° 297° (WNW) 4,430 13.0 -5.1°
Maximum altitude 19:01:45 75° 214° (SW) 2,707 10.3 -8.2°
Drops below altitude 10° 19:19:44 10° 132° (SE) 5,755 11.4 -12.5°
Enters shadow 19:20:52 - 131° (SE) 5,999 11.5 -12.7°
Sets 19:24:10 0° 130° (SE) 6,711 - -13.5°
